Weather in Nachod

Czech Republic     50°24′38″N   16°09′40″E
temp.,
°C
wind,
m/s
gust,
m/s
humid.,
%
clouds,
%
prec.,
mm/h
press.,
hPa
HPBL,
m
10 may, mon
mon1023:00+11s5148034 0.0 1014473
02:00+11s6187228 0.0 1012742
05:00+11s7206542 0.0 1011754
08:00+13s717695 0.0 1012784
11:00+17s8116413 0.0 1011779
14:00+19s810602 0.0 1011906
17:00+20ssw68660 0.0 10121012
20:00+16s38826 0.0 1012293
11 may, tue
tue1123:00+13sse138882 0.0 101268
02:00+12se248656 0.0 101185
05:00+12se248376 0.0 100994
08:00+17s515645 0.0 1008910
11:00+19s813604 0.0 1008999
14:00+21s813570 0.0 10071452
17:00+21sse713634 0.0 10061667
20:00+18sse513743 0.0 1006696
12 may, wed
wed1223:00+16sse514745 0.0 1006667
02:00+15s513792 0.0 1006562
05:00+13ssw4993100 0.0 1006552
08:00+14sw2490100 0.1 1007511
11:00+17wsw127677 0.0 1007751
14:00+17ene348296 1.7 1006737
17:00+16ne568899 1.9 1005713
20:00+13nne3996100 3.7 1005671
13 may, thu
thu1323:00+12nne31198100 1.9 1004539
02:00+11ne2798100 2.3 1003491
05:00+11ne1499100 0.6 1001312
08:00+11ene2395100 0.7 1001348
11:00+13ene2387100 0.1 1000571
14:00+11s3494100 0.4 1001463
17:00+10ssw2598100 0.8 1001377
20:00+10sw4798100 1.2 1002554
14 may, fri
fri1423:00+7sw4898100 0.6 1003493
02:00+7sw4998100 2.6 1003484
05:00+7sw51098100 2.6 1004487
08:00+6sw5998100 5.4 1006473
11:00+6sw5998100 0.4 1007568
14:00+8sw699293 0.6 1009632
17:00+10wsw698166 0.2 1009983
20:00+8wsw49880 0.2 1010529